Retour au catalogue

FENGYUN 1C DEB

ActifPO
NORAD 32314·DEBRIS·🇨🇳 China

Lancé May 10, 1999 depuis Taiyuan Satellite Launch Center

Loading…

Prochains Passages (prochaines 24 heures)

TLE

FraisSource: Space-Track

Époque: Sep 12, 2026, 20:10 UTC

1 32314U 99025CXF 26255.84032194  .00003621  00000-0  37089-3 0  9991
2 32314  98.8876  35.6225 0135874   8.9730 351.3863 14.84625900 14518

Suivez FENGYUN 1C DEB en temps réel avec AllMySat

Download on the App Store